Location: Hokitika
(42.7170°S, 170.9670°E)
Time: 12:55:27
(UTC+13:00)

Lacrosse 5 rocket - Pass Details

Date: 24 January 2019
Orbit: 469 x 630 km, 57.0° (Epoch: 06 February)

Event Time Altitude Azimuth Distance (km) Brightness Sun altitude
Rises 22:47:47 0° 221° (SW) 2,590 6.7 -15.4°
Reaches altitude 10° 22:51:08 10° 190° (S) 1,682 4.7 -15.9°
Maximum altitude 22:52:48 12° 164° (SSE) 1,526 4.0 -16.1°
Drops below altitude 10° 22:54:27 10° 138° (SE) 1,666 3.8 -16.3°
Enters shadow 22:56:34 - 114° (ESE) 2,178 4.2 -16.5°
